| time (UTC) | temp C | wind direction | speed KPH | gust KPH | rain 1hr cm | rain 24hr cm | rain mn cm | humidity % | barometer mb |
| 20260507141836 | 18 | 61 | 3.2 | 11.3 | 0.00 | 1.60 | 0.33 | 79 | 1010.1 |
| 20260507141328 | 18 | 36 | 3.2 | 14.5 | 0.00 | 1.60 | 0.33 | 78 | 1010.2 |
| 20260507140839 | 19 | 59 | 3.2 | 14.5 | 0.00 | 1.60 | 0.33 | 79 | 1010.2 |
| 20260507140332 | 19 | 49 | 4.8 | 17.7 | 0.00 | 1.60 | 0.33 | 78 | 1010.2 |
| 20260507135826 | 19 | 360 | 6.4 | 17.7 | 0.20 | 1.60 | 0.33 | 78 | 1010.2 |
| 20260507135339 | 19 | 10 | 3.2 | 17.7 | 1.09 | 1.60 | 0.33 | 81 | 1010.2 |
| 20260507134829 | 19 | 9 | 3.2 | 17.7 | 1.60 | 1.60 | 0.33 | 81 | 1010.3 |
| 20260507134326 | 19 | 38 | 4.8 | 16.1 | 1.60 | 1.60 | 0.33 | 81 | 1010.4 |
| 20260507133837 | 19 | 30 | 6.4 | 16.1 | 1.60 | 1.60 | 0.33 | 82 | 1010.4 |
| 20260507133330 | 19 | 18 | 4.8 | 11.3 | 1.60 | 1.60 | 0.33 | 83 | 1010.4 |
| 20260507132827 | 18 | 16 | 1.6 | 11.3 | 1.60 | 1.60 | 0.33 | 83 | 1010.5 |
| 20260507132340 | 18 | 31 | 4.8 | 11.3 | 1.60 | 1.60 | 0.33 | 83 | 1010.6 |
| 20260507131831 | 18 | 5 | 4.8 | 11.3 | 1.60 | 1.60 | 0.33 | 83 | 1010.8 |
| 20260507131321 | 18 | 65 | 1.6 | 4.8 | 1.60 | 1.60 | 0.33 | 82 | 1010.8 |
| 20260507130833 | 18 | 65 | 1.6 | 6.4 | 1.60 | 1.60 | 0.33 | 81 | 1010.9 |
| 20260507130328 | 18 | 66 | 1.6 | 11.3 | 1.60 | 1.60 | 0.33 | 80 | 1011.1 |
| 20260507125842 | 19 | 60 | 1.6 | 11.3 | 1.40 | 1.40 | 0.28 | 79 | 1011.1 |
| 20260507125332 | 20 | 81 | 3.2 | 12.9 | 0.41 | 0.41 | 0.08 | 78 | 1011.2 |
| 20260507124823 | 20 | 11 | 4.8 | 16.1 | 0.00 | 0.00 | 0.00 | 76 | 1011.0 |
| 20260507124333 | 20 | 23 | 6.4 | 14.5 | 0.00 | 0.00 | 0.00 | 76 | 1011.0 |
| 20260507123824 | 20 | 51 | 6.4 | 14.5 | 0.00 | 0.00 | 0.00 | 76 | 1011.1 |
| 20260507123333 | 20 | 11 | 4.8 | 14.5 | 0.00 | 0.00 | 0.00 | 74 | 1010.9 |
| 20260507122827 | 20 | 55 | 3.2 | 19.3 | 0.00 | 0.00 | 0.00 | 74 | 1011.0 |
| 20260507122325 | 20 | 13 | 8.0 | 19.3 | 0.00 | 0.00 | 0.00 | 74 | 1011.2 |
| 20260507121835 | 20 | 71 | 3.2 | 12.9 | 0.00 | 0.00 | 0.00 | 74 | 1011.1 |
| 20260507121329 | 20 | 12 | 1.6 | 11.3 | 0.00 | 0.00 | 0.00 | 74 | 1011.2 |
| 20260507120842 | 20 | 5 | 4.8 | 17.7 | 0.00 | 0.00 | 0.00 | 73 | 1011.2 |
| 20260507120334 | 20 | 13 | 4.8 | 17.7 | 0.00 | 0.00 | 0.00 | 73 | 1011.2 |
| 20260507115841 | 20 | 9 | 4.8 | 14.5 | 0.00 | 0.00 | 0.00 | 73 | 1011.3 |
| 20260507115335 | 21 | 5 | 6.4 | 14.5 | 0.00 | 0.00 | 0.00 | 72 | 1011.4 |
| 20260507114828 | 21 | 355 | 3.2 | 14.5 | 0.00 | 0.00 | 0.00 | 73 | 1011.5 |
| 20260507114339 | 20 | 12 | 3.2 | 12.9 | 0.00 | 0.00 | 0.00 | 74 | 1011.5 |
| 20260507113834 | 20 | 13 | 6.4 | 16.1 | 0.00 | 0.00 | 0.00 | 74 | 1011.4 |
| 20260507113344 | 20 | 13 | 6.4 | 16.1 | 0.00 | 0.00 | 0.00 | 74 | 1011.6 |
| 20260507112835 | 20 | 18 | 4.8 | 11.3 | 0.00 | 0.00 | 0.00 | 74 | 1011.6 |
| 20260507112331 | 20 | 18 | 1.6 | 11.3 | 0.00 | 0.00 | 0.00 | 74 | 1011.6 |
| 20260507111842 | 20 | 15 | 6.4 | 11.3 | 0.00 | 0.00 | 0.00 | 73 | 1011.6 |
| 20260507111332 | 20 | 13 | 3.2 | 9.7 | 0.00 | 0.00 | 0.00 | 74 | 1011.7 |
| 20260507110843 | 20 | 13 | 1.6 | 8.0 | 0.00 | 0.00 | 0.00 | 75 | 1011.8 |
| 20260507110332 | 20 | 15 | 4.8 | 8.0 | 0.00 | 0.00 | 0.00 | 75 | 1011.8 |
| 20260507105827 | 20 | 15 | 0.0 | 8.0 | 0.00 | 0.00 | 0.00 | 75 | 1011.7 |
| 20260507105320 | 20 | 15 | 1.6 | 6.4 | 0.00 | 0.00 | 0.00 | 75 | 1011.8 |
| 20260507104834 | 20 | 15 | 1.6 | 6.4 | 0.00 | 0.00 | 0.00 | 76 | 1011.9 |
| 20260507104328 | 20 | 15 | 0.0 | 8.0 | 0.00 | 0.00 | 0.00 | 76 | 1011.8 |
| 20260507103838 | 19 | 15 | 0.0 | 6.4 | 0.00 | 0.00 | 0.00 | 77 | 1011.8 |
| 20260507103328 | 19 | 15 | 0.0 | 9.7 | 0.00 | 0.00 | 0.00 | 77 | 1012.0 |
| 20260507102838 | 19 | 15 | 0.0 | 9.7 | 0.00 | 0.00 | 0.00 | 77 | 1012.0 |
| 20260507102329 | 19 | 15 | 1.6 | 8.0 | 0.00 | 0.00 | 0.00 | 77 | 1012.0 |
| 20260507101846 | 19 | 15 | 4.8 | 9.7 | 0.00 | 0.00 | 0.00 | 77 | 1011.9 |
| 20260507101337 | 19 | 16 | 4.8 | 9.7 | 0.00 | 0.00 | 0.00 | 77 | 1012.0 |
| 20260507100830 | 19 | 17 | 1.6 | 9.7 | 0.00 | 0.00 | 0.00 | 77 | 1011.9 |
| 20260507100335 | 19 | 18 | 1.6 | 9.7 | 0.00 | 0.00 | 0.00 | 77 | 1012.0 |
| 20260507095832 | 19 | 18 | 3.2 | 9.7 | 0.00 | 0.00 | 0.00 | 77 | 1012.1 |
| 20260507095342 | 18 | 18 | 1.6 | 6.4 | 0.00 | 0.00 | 0.00 | 77 | 1012.1 |
| 20260507094833 | 18 | 18 | 1.6 | 6.4 | 0.00 | 0.00 | 0.00 | 77 | 1012.2 |
| 20260507094343 | 18 | 18 | 0.0 | 8.0 | 0.00 | 0.00 | 0.00 | 78 | 1012.1 |
| 20260507093838 | 18 | 18 | 1.6 | 9.7 | 0.00 | 0.00 | 0.00 | 77 | 1012.2 |
| 20260507093328 | 18 | 21 | 1.6 | 8.0 | 0.00 | 0.00 | 0.00 | 76 | 1012.2 |
| 20260507092838 | 18 | 21 | 1.6 | 11.3 | 0.00 | 0.00 | 0.00 | 76 | 1012.2 |
| 20260507092329 | 18 | 21 | 3.2 | 11.3 | 0.00 | 0.00 | 0.00 | 75 | 1012.2 |
| 20260507091842 | 19 | 22 | 3.2 | 11.3 | 0.00 | 0.00 | 0.00 | 75 | 1012.2 |
| 20260507091333 | 19 | 30 | 0.0 | 6.4 | 0.00 | 0.00 | 0.00 | 75 | 1012.1 |
| 20260507090823 | 19 | 30 | 1.6 | 6.4 | 0.00 | 0.00 | 0.00 | 75 | 1012.1 |
| 20260507090333 | 19 | 30 | 1.6 | 6.4 | 0.00 | 0.00 | 0.00 | 76 | 1012.1 |
| 20260507085827 | 19 | 30 | 1.6 | 4.8 | 0.00 | 0.00 | 0.00 | 76 | 1012.1 |
| 20260507085324 | 19 | 30 | 0.0 | 6.4 | 0.00 | 0.00 | 0.00 | 76 | 1012.3 |
| 20260507084834 | 19 | 30 | 0.0 | 9.7 | 0.00 | 0.00 | 0.00 | 75 | 1012.2 |
| 20260507084325 | 19 | 30 | 4.8 | 8.0 | 0.00 | 0.00 | 0.00 | 75 | 1012.2 |
| 20260507083835 | 19 | 30 | 3.2 | 8.0 | 0.00 | 0.00 | 0.00 | 76 | 1012.2 |
| 20260507083329 | 18 | 34 | 0.0 | 11.3 | 0.00 | 0.00 | 0.00 | 75 | 1012.1 |
| 20260507082825 | 18 | 34 | 3.2 | 11.3 | 0.00 | 0.00 | 0.00 | 76 | 1012.1 |
| 20260507082336 | 18 | 37 | 3.2 | 6.4 | 0.00 | 0.00 | 0.00 | 76 | 1012.0 |
| 20260507081831 | 18 | 37 | 0.0 | 8.0 | 0.00 | 0.00 | 0.00 | 76 | 1011.9 |
| 20260507081321 | 18 | 39 | 1.6 | 6.4 | 0.00 | 0.00 | 0.00 | 77 | 1011.9 |
| 20260507080835 | 18 | 42 | 1.6 | 8.0 | 0.00 | 0.00 | 0.00 | 77 | 1011.9 |
| 20260507080328 | 18 | 42 | 0.0 | 8.0 | 0.00 | 0.00 | 0.00 | 78 | 1011.9 |
| 20260507075839 | 18 | 43 | 1.6 | 9.7 | 0.00 | 0.00 | 0.00 | 77 | 1011.9 |
| 20260507075329 | 18 | 46 | 1.6 | 9.7 | 0.00 | 0.00 | 0.00 | 77 | 1012.0 |
| 20260507074823 | 18 | 57 | 3.2 | 6.4 | 0.00 | 0.00 | 0.00 | 77 | 1011.9 |
| 20260507074336 | 18 | 60 | 3.2 | 6.4 | 0.00 | 0.00 | 0.00 | 78 | 1011.9 |
| 20260507073830 | 18 | 67 | 0.0 | 6.4 | 0.00 | 0.00 | 0.00 | 78 | 1011.7 |
| 20260507073326 | 17 | 67 | 1.6 | 6.4 | 0.00 | 0.00 | 0.00 | 78 | 1011.7 |
| 20260507072820 | 17 | 69 | 1.6 | 8.0 | 0.00 | 0.00 | 0.00 | 78 | 1011.6 |
| 20260507072331 | 17 | 69 | 0.0 | 8.0 | 0.00 | 0.00 | 0.00 | 79 | 1011.7 |
| 20260507071827 | 17 | 109 | 0.0 | 4.8 | 0.00 | 0.00 | 0.00 | 79 | 1011.7 |
| 20260507071338 | 17 | 109 | 0.0 | 6.4 | 0.00 | 0.00 | 0.00 | 80 | 1011.7 |
| 20260507070828 | 16 | 109 | 3.2 | 11.3 | 0.00 | 0.00 | 0.00 | 80 | 1011.7 |
| 20260507070339 | 16 | 109 | 3.2 | 11.3 | 0.00 | 0.00 | 0.00 | 80 | 1011.7 |
| 20260507065832 | 16 | 90 | 1.6 | 4.8 | 0.00 | 0.00 | 0.00 | 81 | 1011.7 |
| 20260507065327 | 16 | 90 | 1.6 | 4.8 | 0.00 | 0.00 | 0.00 | 81 | 1011.8 |
| 20260507064823 | 16 | 90 | 1.6 | 8.0 | 0.00 | 0.00 | 0.00 | 81 | 1011.7 |
| 20260507064334 | 16 | 90 | 3.2 | 8.0 | 0.00 | 0.00 | 0.00 | 81 | 1011.7 |
| 20260507063825 | 16 | 88 | 0.0 | 8.0 | 0.00 | 0.00 | 0.00 | 81 | 1011.7 |
| 20260507063321 | 16 | 88 | 3.2 | 8.0 | 0.00 | 0.00 | 0.00 | 82 | 1011.7 |
| 20260507062832 | 16 | 88 | 0.0 | 1.6 | 0.00 | 0.00 | 0.00 | 82 | 1011.8 |
| 20260507062322 | 16 | 88 | 0.0 | 4.8 | 0.00 | 0.00 | 0.00 | 81 | 1011.7 |
| 20260507061840 | 15 | 88 | 1.6 | 4.8 | 0.00 | 0.00 | 0.00 | 82 | 1011.7 |
| 20260507061330 | 15 | 88 | 1.6 | 4.8 | 0.00 | 0.00 | 0.00 | 82 | 1011.7 |
| 20260507060824 | 15 | 88 | 0.0 | 8.0 | 0.00 | 0.00 | 0.00 | 82 | 1011.7 |
| 20260507060333 | 15 | 88 | 1.6 | 8.0 | 0.00 | 0.00 | 0.00 | 82 | 1011.7 |
| 20260507055827 | 15 | 88 | 1.6 | 4.8 | 0.00 | 0.00 | 0.00 | 82 | 1011.6 |
| 20260507055321 | 15 | 88 | 1.6 | 9.7 | 0.00 | 0.00 | 0.00 | 83 | 1011.4 |
| 20260507054831 | 15 | 88 | 1.6 | 9.7 | 0.00 | 0.00 | 0.00 | 83 | 1011.4 |
| 20260507054325 | 15 | 88 | 1.6 | 8.0 | 0.00 | 0.00 | 0.00 | 83 | 1011.4 |
| 20260507053822 | 15 | 88 | 3.2 | 8.0 | 0.00 | 0.00 | 0.00 | 83 | 1011.3 |
| 20260507053333 | 15 | 88 | 1.6 | 9.7 | 0.00 | 0.00 | 0.00 | 83 | 1011.3 |
| 20260507052826 | 15 | 88 | 3.2 | 8.0 | 0.00 | 0.00 | 0.00 | 83 | 1011.2 |
| 20260507052337 | 15 | 88 | 1.6 | 4.8 | 0.00 | 0.00 | 0.00 | 83 | 1011.2 |
| 20260507051828 | 15 | 88 | 1.6 | 4.8 | 0.00 | 0.00 | 0.00 | 83 | 1011.1 |
| 20260507051338 | 15 | 88 | 1.6 | 4.8 | 0.00 | 0.00 | 0.00 | 83 | 1011.2 |
| 20260507050829 | 15 | 88 | 1.6 | 9.7 | 0.00 | 0.00 | 0.00 | 84 | 1011.1 |
| 20260507050319 | 14 | 88 | 4.8 | 9.7 | 0.00 | 0.00 | 0.00 | 84 | 1011.0 |
| 20260507045837 | 14 | 88 | 1.6 | 4.8 | 0.00 | 0.00 | 0.00 | 84 | 1011.0 |
| 20260507045327 | 14 | 88 | 1.6 | 3.2 | 0.00 | 0.00 | 0.00 | 84 | 1010.9 |
| 20260507044838 | 14 | 88 | 1.6 | 3.2 | 0.00 | 0.00 | 0.00 | 84 | 1010.9 |
| 20260507044328 | 14 | 88 | 1.6 | 3.2 | 0.00 | 0.00 | 0.00 | 84 | 1010.9 |
| 20260507043838 | 14 | 88 | 0.0 | 4.8 | 0.00 | 0.00 | 0.00 | 84 | 1010.9 |
| 20260507043329 | 14 | 88 | 1.6 | 8.0 | 0.00 | 0.00 | 0.00 | 84 | 1010.9 |
| 20260507042822 | 14 | 88 | 0.0 | 8.0 | 0.00 | 0.00 | 0.00 | 84 | 1010.9 |
| 20260507042333 | 14 | 88 | 3.2 | 8.0 | 0.00 | 0.00 | 0.00 | 84 | 1010.9 |
| 20260507041827 | 14 | 88 | 3.2 | 4.8 | 0.00 | 0.00 | 0.00 | 85 | 1010.9 |
| 20260507041318 | 14 | 88 | 1.6 | 4.8 | 0.00 | 0.00 | 0.00 | 85 | 1010.9 |
| 20260507040828 | 14 | 88 | 0.0 | 4.8 | 0.00 | 0.00 | 0.00 | 84 | 1010.9 |
| 20260507040333 | 14 | 88 | 0.0 | 4.8 | 0.00 | 0.00 | 0.00 | 84 | 1011.0 |
| 20260507035823 | 14 | 88 | 0.0 | 0.0 | 0.00 | 0.00 | 0.00 | 84 | 1011.0 |
| 20260507035317 | 14 | 88 | 0.0 | 0.0 | 0.00 | 0.00 | 0.00 | 84 | 1011.0 |
| 20260507034827 | 14 | 88 | 0.0 | 0.0 | 0.00 | 0.00 | 0.00 | 84 | 1011.1 |
| 20260507034318 | 13 | 88 | 0.0 | 4.8 | 0.00 | 0.00 | 0.00 | 84 | 1011.0 |
| 20260507033829 | 13 | 88 | 0.0 | 4.8 | 0.00 | 0.00 | 0.00 | 84 | 1011.1 |
| 20260507033323 | 13 | 88 | 3.2 | 4.8 | 0.00 | 0.00 | 0.00 | 84 | 1011.0 |
| 20260507032833 | 13 | 88 | 0.0 | 0.0 | 0.00 | 0.00 | 0.00 | 84 | 1011.0 |
| 20260507032326 | 13 | 88 | 0.0 | 0.0 | 0.00 | 0.00 | 0.00 | 85 | 1011.1 |
| 20260507031819 | 13 | 88 | 0.0 | 0.0 | 0.00 | 0.00 | 0.00 | 85 | 1011.1 |
| 20260507031330 | 12 | 88 | 0.0 | 0.0 | 0.00 | 0.00 | 0.00 | 84 | 1011.2 |
| 20260507030823 | 12 | 88 | 0.0 | 0.0 | 0.00 | 0.00 | 0.00 | 84 | 1011.2 |
| 20260507030337 | 12 | 88 | 0.0 | 0.0 | 0.00 | 0.00 | 0.00 | 84 | 1011.4 |
| 20260507025823 | 12 | 88 | 0.0 | 0.0 | 0.00 | 0.00 | 0.00 | 85 | 1011.2 |
| 20260507025338 | 12 | 88 | 0.0 | 0.0 | 0.00 | 0.00 | 0.00 | 85 | 1011.4 |
| 20260507024827 | 12 | 88 | 0.0 | 0.0 | 0.00 | 0.00 | 0.00 | 85 | 1011.4 |
| 20260507024318 | 12 | 88 | 0.0 | 0.0 | 0.00 | 0.00 | 0.00 | 85 | 1011.4 |
| 20260507023832 | 12 | 88 | 0.0 | 0.0 | 0.00 | 0.00 | 0.00 | 85 | 1011.4 |
| 20260507023324 | 12 | 88 | 0.0 | 0.0 | 0.00 | 0.00 | 0.00 | 85 | 1011.3 |
| 20260507022834 | 12 | 88 | 0.0 | 0.0 | 0.00 | 0.00 | 0.00 | 85 | 1011.2 |
| 20260507022328 | 12 | 88 | 0.0 | 1.6 | 0.00 | 0.00 | 0.00 | 85 | 1011.3 |
| 20260507021819 | 13 | 88 | 0.0 | 1.6 | 0.00 | 0.00 | 0.00 | 85 | 1011.3 |
| 20260507021336 | 12 | 88 | 0.0 | 0.0 | 0.00 | 0.00 | 0.00 | 84 | 1011.2 |
| 20260507020826 | 12 | 88 | 0.0 | 0.0 | 0.00 | 0.00 | 0.00 | 85 | 1011.2 |
| 20260507020329 | 12 | 88 | 0.0 | 0.0 | 0.00 | 0.00 | 0.00 | 85 | 1011.2 |
| 20260507015826 | 12 | 88 | 0.0 | 0.0 | 0.00 | 0.00 | 0.00 | 85 | 1011.2 |
| 20260507015319 | 12 | 88 | 0.0 | 0.0 | 0.00 | 0.00 | 0.00 | 85 | 1011.2 |
| 20260507014831 | 12 | 88 | 0.0 | 0.0 | 0.00 | 0.00 | 0.00 | 85 | 1011.2 |
| 20260507014321 | 12 | 88 | 0.0 | 0.0 | 0.00 | 0.00 | 0.00 | 85 | 1011.2 |
| 20260507013832 | 12 | 88 | 0.0 | 0.0 | 0.00 | 0.00 | 0.00 | 85 | 1011.3 |
| 20260507013326 | 12 | 88 | 0.0 | 0.0 | 0.00 | 0.00 | 0.00 | 85 | 1011.3 |
| 20260507012820 | 12 | 88 | 0.0 | 0.0 | 0.00 | 0.00 | 0.00 | 84 | 1011.2 |
| 20260507012331 | 12 | 88 | 0.0 | 0.0 | 0.00 | 0.00 | 0.00 | 84 | 1011.2 |
| 20260507011823 | 12 | 88 | 0.0 | 0.0 | 0.00 | 0.00 | 0.00 | 84 | 1011.2 |
| 20260507011317 | 13 | 88 | 0.0 | 0.0 | 0.00 | 0.00 | 0.00 | 84 | 1011.3 |
| 20260507010830 | 13 | 88 | 0.0 | 1.6 | 0.00 | 0.00 | 0.00 | 84 | 1011.3 |
| 20260507010321 | 13 | 88 | 0.0 | 1.6 | 0.00 | 0.00 | 0.00 | 84 | 1011.3 |
| 20260507005832 | 13 | 88 | 0.0 | 0.0 | 0.00 | 0.00 | 0.00 | 84 | 1011.2 |
| 20260507005326 | 13 | 88 | 0.0 | 0.0 | 0.00 | 0.00 | 0.00 | 84 | 1011.4 |
| 20260507004836 | 13 | 88 | 0.0 | 0.0 | 0.00 | 0.00 | 0.00 | 84 | 1011.3 |
| 20260507004327 | 13 | 88 | 0.0 | 0.0 | 0.00 | 0.00 | 0.00 | 84 | 1011.3 |
| 20260507003820 | 13 | 88 | 0.0 | 0.0 | 0.00 | 0.00 | 0.00 | 84 | 1011.3 |
| 20260507003332 | 13 | 88 | 0.0 | 0.0 | 0.00 | 0.00 | 0.00 | 84 | 1011.3 |
| 20260507002822 | 13 | 88 | 0.0 | 0.0 | 0.00 | 0.00 | 0.00 | 84 | 1011.4 |
| 20260507002332 | 13 | 88 | 0.0 | 0.0 | 0.00 | 0.00 | 0.00 | 84 | 1011.4 |
| 20260507001826 | 13 | 88 | 0.0 | 0.0 | 0.00 | 0.00 | 0.00 | 84 | 1011.6 |
| 20260507001326 | 13 | 88 | 0.0 | 0.0 | 0.00 | 0.00 | 0.00 | 84 | 1011.6 |
| 20260507000820 | 13 | 88 | 0.0 | 0.0 | 0.00 | 0.00 | 0.00 | 84 | 1011.6 |
| 20260507000331 | 13 | 88 | 0.0 | 0.0 | 0.00 | 0.00 | 0.00 | 84 | 1011.7 |
| 20260506235821 | 13 | 88 | 0.0 | 0.0 | 0.00 | 0.00 | 0.00 | 84 | 1011.6 |
| 20260506235332 | 13 | 88 | 0.0 | 0.0 | 0.00 | 0.00 | 0.00 | 84 | 1011.7 |
| 20260506234822 | 13 | 88 | 0.0 | 0.0 | 0.00 | 0.00 | 0.00 | 84 | 1011.7 |
| 20260506234332 | 13 | 88 | 0.0 | 0.0 | 0.00 | 0.00 | 0.00 | 84 | 1011.8 |
| 20260506233825 | 13 | 88 | 0.0 | 0.0 | 0.00 | 0.00 | 0.00 | 84 | 1011.8 |
| 20260506233323 | 13 | 88 | 0.0 | 0.0 | 0.00 | 0.00 | 0.00 | 84 | 1011.8 |
| 20260506232834 | 13 | 88 | 0.0 | 0.0 | 0.00 | 0.00 | 0.00 | 84 | 1011.8 |
| 20260506232327 | 13 | 88 | 0.0 | 0.0 | 0.00 | 0.00 | 0.00 | 84 | 1011.9 |
| 20260506231817 | 13 | 88 | 0.0 | 0.0 | 0.00 | 0.00 | 0.00 | 84 | 1011.9 |
| 20260506231330 | 13 | 88 | 0.0 | 0.0 | 0.00 | 0.00 | 0.00 | 84 | 1011.9 |
| 20260506230821 | 13 | 88 | 0.0 | 0.0 | 0.00 | 0.00 | 0.00 | 84 | 1011.9 |
| 20260506230336 | 13 | 88 | 0.0 | 0.0 | 0.00 | 0.00 | 0.00 | 83 | 1011.9 |
| 20260506225827 | 13 | 88 | 0.0 | 0.0 | 0.00 | 0.00 | 0.00 | 83 | 1012.0 |
| 20260506225323 | 13 | 88 | 0.0 | 0.0 | 0.00 | 0.00 | 0.00 | 83 | 1012.0 |
| 20260506224817 | 13 | 88 | 0.0 | 0.0 | 0.00 | 0.00 | 0.00 | 83 | 1012.0 |
| 20260506224330 | 13 | 88 | 0.0 | 0.0 | 0.00 | 0.00 | 0.00 | 83 | 1012.0 |
| 20260506223821 | 13 | 88 | 0.0 | 0.0 | 0.00 | 0.00 | 0.00 | 83 | 1012.1 |
| 20260506223332 | 13 | 88 | 0.0 | 0.0 | 0.00 | 0.00 | 0.00 | 83 | 1012.1 |
| 20260506222822 | 13 | 88 | 0.0 | 0.0 | 0.00 | 0.00 | 0.00 | 83 | 1012.1 |
| 20260506222334 | 13 | 88 | 0.0 | 0.0 | 0.00 | 0.00 | 0.00 | 82 | 1012.1 |
| 20260506221828 | 13 | 88 | 0.0 | 0.0 | 0.00 | 0.00 | 0.00 | 82 | 1012.0 |
| 20260506221326 | 13 | 88 | 0.0 | 0.0 | 0.00 | 0.00 | 0.00 | 82 | 1012.0 |
| 20260506220836 | 14 | 88 | 0.0 | 0.0 | 0.00 | 0.00 | 0.00 | 82 | 1012.0 |
| 20260506220318 | 14 | 88 | 0.0 | 4.8 | 0.00 | 0.00 | 0.00 | 83 | 1012.1 |
| 20260506215834 | 14 | 88 | 0.0 | 4.8 | 0.00 | 0.00 | 0.00 | 82 | 1012.1 |
| 20260506215328 | 14 | 88 | 0.0 | 1.6 | 0.00 | 0.00 | 0.00 | 82 | 1012.2 |
| 20260506214821 | 14 | 88 | 0.0 | 0.0 | 0.00 | 0.00 | 0.00 | 82 | 1012.2 |
| 20260506214331 | 14 | 88 | 0.0 | 0.0 | 0.00 | 0.00 | 0.00 | 82 | 1012.2 |
| 20260506213825 | 14 | 88 | 0.0 | 0.0 | 0.00 | 0.00 | 0.00 | 82 | 1012.1 |
| 20260506213322 | 14 | 88 | 0.0 | 0.0 | 0.00 | 0.00 | 0.00 | 82 | 1012.1 |
| 20260506212833 | 14 | 88 | 0.0 | 0.0 | 0.00 | 0.00 | 0.00 | 81 | 1012.0 |
| 20260506212327 | 14 | 88 | 0.0 | 0.0 | 0.00 | 0.00 | 0.00 | 81 | 1012.0 |
| 20260506211837 | 15 | 88 | 0.0 | 3.2 | 0.00 | 0.00 | 0.00 | 81 | 1012.0 |
| 20260506211328 | 15 | 88 | 1.6 | 3.2 | 0.00 | 0.00 | 0.00 | 81 | 1011.9 |
| 20260506210824 | 15 | 88 | 1.6 | 3.2 | 0.00 | 0.00 | 0.00 | 80 | 1011.8 |
| 20260506210335 | 15 | 88 | 0.0 | 1.6 | 0.00 | 0.00 | 0.00 | 80 | 1011.9 |
| 20260506205826 | 15 | 88 | 0.0 | 1.6 | 0.00 | 0.00 | 0.00 | 80 | 1011.8 |
| 20260506205323 | 15 | 88 | 0.0 | 4.8 | 0.00 | 0.00 | 0.00 | 80 | 1011.7 |
| 20260506204833 | 15 | 88 | 0.0 | 4.8 | 0.00 | 0.00 | 0.00 | 80 | 1011.7 |
| 20260506204323 | 15 | 88 | 1.6 | 4.8 | 0.00 | 0.00 | 0.00 | 79 | 1011.6 |
| 20260506203834 | 15 | 88 | 1.6 | 4.8 | 0.00 | 0.00 | 0.00 | 79 | 1011.5 |
| 20260506203327 | 15 | 88 | 1.6 | 3.2 | 0.00 | 0.00 | 0.00 | 79 | 1011.3 |
| 20260506202838 | 15 | 88 | 0.0 | 3.2 | 0.00 | 0.00 | 0.00 | 78 | 1011.3 |
| 20260506202327 | 15 | 88 | 0.0 | 3.2 | 0.00 | 0.00 | 0.00 | 78 | 1011.3 |
| 20260506201817 | 15 | 88 | 1.6 | 3.2 | 0.00 | 0.00 | 0.00 | 78 | 1011.3 |
| 20260506201332 | 15 | 88 | 0.0 | 8.0 | 0.00 | 0.00 | 0.00 | 78 | 1011.4 |
| 20260506200827 | 15 | 88 | 1.6 | 8.0 | 0.00 | 0.00 | 0.00 | 78 | 1011.3 |
| 20260506200340 | 16 | 88 | 3.2 | 9.7 | 0.00 | 0.00 | 0.00 | 78 | 1011.2 |
| 20260506195830 | 16 | 88 | 3.2 | 9.7 | 0.00 | 0.00 | 0.00 | 77 | 1011.1 |
| 20260506195324 | 16 | 85 | 1.6 | 8.0 | 0.00 | 0.00 | 0.00 | 77 | 1011.0 |
| 20260506194837 | 16 | 84 | 3.2 | 8.0 | 0.00 | 0.00 | 0.00 | 77 | 1010.9 |
| 20260506194328 | 16 | 84 | 1.6 | 8.0 | 0.00 | 0.00 | 0.00 | 77 | 1010.9 |
| 20260506193818 | 16 | 84 | 1.6 | 8.0 | 0.00 | 0.00 | 0.00 | 77 | 1010.8 |
| 20260506193332 | 16 | 84 | 1.6 | 8.0 | 0.00 | 0.00 | 0.00 | 76 | 1010.9 |
| 20260506192827 | 16 | 74 | 1.6 | 6.4 | 0.00 | 0.00 | 0.00 | 76 | 1010.9 |
| 20260506192322 | 16 | 74 | 1.6 | 6.4 | 0.00 | 0.00 | 0.00 | 76 | 1010.9 |
| 20260506191833 | 16 | 72 | 1.6 | 4.8 | 0.00 | 0.00 | 0.00 | 76 | 1010.8 |
| 20260506191326 | 16 | 72 | 1.6 | 4.8 | 0.00 | 0.00 | 0.00 | 76 | 1010.7 |
| 20260506190837 | 16 | 72 | 1.6 | 4.8 | 0.00 | 0.00 | 0.00 | 75 | 1010.6 |
| 20260506190327 | 16 | 72 | 0.0 | 4.8 | 0.00 | 0.00 | 0.00 | 75 | 1010.8 |
| 20260506185838 | 16 | 72 | 0.0 | 4.8 | 0.00 | 0.00 | 0.00 | 75 | 1010.8 |
| 20260506185328 | 16 | 72 | 1.6 | 6.4 | 0.00 | 0.00 | 0.00 | 75 | 1010.8 |
| 20260506184826 | 16 | 72 | 0.0 | 4.8 | 0.00 | 0.00 | 0.00 | 75 | 1010.8 |
| 20260506184336 | 17 | 72 | 0.0 | 3.2 | 0.00 | 0.00 | 0.00 | 74 | 1010.8 |
| 20260506183829 | 17 | 72 | 1.6 | 3.2 | 0.00 | 0.00 | 0.00 | 74 | 1010.8 |
| 20260506183322 | 17 | 72 | 0.0 | 3.2 | 0.00 | 0.00 | 0.00 | 74 | 1010.8 |
| 20260506182833 | 17 | 72 | 0.0 | 0.0 | 0.00 | 0.00 | 0.00 | 73 | 1010.7 |
| 20260506182324 | 17 | 72 | 0.0 | 1.6 | 0.00 | 0.00 | 0.00 | 73 | 1010.6 |
| 20260506181833 | 17 | 72 | 0.0 | 1.6 | 0.00 | 0.00 | 0.00 | 73 | 1010.5 |
| 20260506181327 | 17 | 72 | 0.0 | 1.6 | 0.00 | 0.00 | 0.00 | 72 | 1010.5 |
| 20260506180827 | 17 | 72 | 0.0 | 3.2 | 0.00 | 0.00 | 0.00 | 72 | 1010.6 |
| 20260506180337 | 17 | 72 | 1.6 | 3.2 | 0.00 | 0.00 | 0.00 | 71 | 1010.6 |
| 20260506175828 | 17 | 72 | 0.0 | 6.4 | 0.00 | 0.00 | 0.00 | 70 | 1010.5 |
| 20260506175341 | 17 | 72 | 1.6 | 6.4 | 0.00 | 0.00 | 0.00 | 70 | 1010.5 |
| 20260506174832 | 18 | 72 | 0.0 | 1.6 | 0.00 | 0.00 | 0.00 | 69 | 1010.5 |
| 20260506174342 | 18 | 72 | 0.0 | 3.2 | 0.00 | 0.00 | 0.00 | 70 | 1010.5 |
| 20260506173833 | 18 | 72 | 0.0 | 4.8 | 0.00 | 0.00 | 0.00 | 69 | 1010.4 |
| 20260506173343 | 18 | 72 | 1.6 | 4.8 | 0.00 | 0.00 | 0.00 | 69 | 1010.5 |
| 20260506172838 | 18 | 72 | 0.0 | 4.8 | 0.00 | 0.00 | 0.00 | 68 | 1010.5 |
| 20260506172328 | 18 | 72 | 1.6 | 4.8 | 0.00 | 0.00 | 0.00 | 67 | 1010.4 |
| 20260506171839 | 18 | 72 | 0.0 | 4.8 | 0.00 | 0.00 | 0.00 | 68 | 1010.4 |
| 20260506171332 | 18 | 72 | 1.6 | 4.8 | 0.00 | 0.00 | 0.00 | 68 | 1010.4 |
| 20260506170826 | 18 | 72 | 0.0 | 8.0 | 0.00 | 0.00 | 0.00 | 68 | 1010.5 |
| 20260506170337 | 19 | 73 | 1.6 | 8.0 | 0.00 | 0.00 | 0.00 | 69 | 1010.4 |
| 20260506165827 | 19 | 68 | 1.6 | 8.0 | 0.00 | 0.00 | 0.00 | 69 | 1010.6 |
| 20260506165324 | 19 | 69 | 1.6 | 6.4 | 0.00 | 0.00 | 0.00 | 70 | 1010.5 |
| 20260506164838 | 19 | 69 | 0.0 | 8.0 | 0.00 | 0.00 | 0.00 | 70 | 1010.5 |
| 20260506164329 | 19 | 71 | 1.6 | 8.0 | 0.00 | 0.00 | 0.00 | 70 | 1010.5 |
| 20260506163840 | 19 | 69 | 0.0 | 8.0 | 0.00 | 0.00 | 0.00 | 69 | 1010.5 |
| 20260506163330 | 19 | 68 | 1.6 | 9.7 | 0.00 | 0.00 | 0.00 | 69 | 1010.5 |
| 20260506162823 | 19 | 87 | 1.6 | 8.0 | 0.00 | 0.00 | 0.00 | 68 | 1010.5 |
| 20260506162334 | 20 | 77 | 1.6 | 4.8 | 0.00 | 0.00 | 0.00 | 68 | 1010.6 |
| 20260506161827 | 20 | 77 | 1.6 | 4.8 | 0.00 | 0.00 | 0.00 | 67 | 1010.5 |
| 20260506161338 | 20 | 77 | 1.6 | 4.8 | 0.00 | 0.00 | 0.00 | 68 | 1010.5 |
| 20260506160833 | 20 | 77 | 0.0 | 4.8 | 0.00 | 0.00 | 0.00 | 67 | 1010.5 |
| 20260506160333 | 20 | 78 | 1.6 | 6.4 | 0.00 | 0.00 | 0.00 | 67 | 1010.5 |
| 20260506155827 | 20 | 78 | 1.6 | 6.4 | 0.00 | 0.00 | 0.00 | 66 | 1010.5 |
| 20260506155343 | 20 | 80 | 1.6 | 6.4 | 0.00 | 0.00 | 0.00 | 66 | 1010.5 |
| 20260506154833 | 20 | 81 | 0.0 | 6.4 | 0.00 | 0.00 | 0.00 | 66 | 1010.4 |
| 20260506154327 | 21 | 81 | 1.6 | 6.4 | 0.00 | 0.00 | 0.00 | 64 | 1010.5 |
| 20260506153839 | 21 | 81 | 1.6 | 6.4 | 0.00 | 0.00 | 0.00 | 64 | 1010.5 |
| 20260506153330 | 21 | 66 | 1.6 | 8.0 | 0.00 | 0.00 | 0.00 | 64 | 1010.5 |
| 20260506152830 | 21 | 66 | 3.2 | 8.0 | 0.00 | 0.00 | 0.00 | 65 | 1010.5 |
| 20260506152323 | 20 | 67 | 0.0 | 4.8 | 0.00 | 0.00 | 0.00 | 66 | 1010.5 |
| 20260506151840 | 20 | 67 | 1.6 | 4.8 | 0.00 | 0.00 | 0.00 | 66 | 1010.5 |
| 20260506151333 | 20 | 67 | 1.6 | 3.2 | 0.00 | 0.00 | 0.00 | 68 | 1010.5 |
| 20260506150826 | 19 | 67 | 0.0 | 3.2 | 0.00 | 0.00 | 0.00 | 68 | 1010.5 |
| 20260506150337 | 19 | 67 | 0.0 | 3.2 | 0.00 | 0.00 | 0.00 | 68 | 1010.6 |
| 20260506145827 | 18 | 67 | 0.0 | 1.6 | 0.00 | 0.00 | 0.00 | 69 | 1010.7 |
| 20260506145338 | 18 | 67 | 0.0 | 4.8 | 0.00 | 0.00 | 0.00 | 69 | 1010.7 |
| 20260506144833 | 18 | 66 | 1.6 | 4.8 | 0.00 | 0.00 | 0.00 | 69 | 1010.7 |
| 20260506144326 | 18 | 66 | 1.6 | 6.4 | 0.00 | 0.00 | 0.00 | 69 | 1010.7 |
| 20260506143837 | 18 | 66 | 1.6 | 6.4 | 0.00 | 0.00 | 0.00 | 69 | 1010.7 |
| 20260506143328 | 18 | 67 | 1.6 | 6.4 | 0.00 | 0.00 | 0.00 | 69 | 1010.8 |
| 20260506142824 | 18 | 66 | 1.6 | 11.3 | 0.00 | 0.00 | 0.00 | 69 | 1010.9 |
| 20260506142334 | 18 | 67 | 3.2 | 11.3 | 0.00 | 0.00 | 0.00 | 69 | 1011.0 |